Regional Weather Roundup
Issued by NWS Cleveland, OH

Home | Current Version | Previous Version | Graphics & Text | Print | Product List | Glossary On
Versions: 1 2 3 4 5 6 7 8 9 10 11 12 13 14 15 16 17 18 19 20 21 22 23 24 25 26 27 28 29 30 31 32 33 34 35 36 37 38 39 40 41 42 43 44 45 46 47 48 49 50
000
ASUS41 KCLE 280600
RWRCLE
OHIO REGIONAL WEATHER ROUNDUP
NATIONAL WEATHER SERVICE WILMINGTON, OH
200 AM EDT SAT MAR 28 2015

NOTE: "FAIR" INDICATES FEW OR NO CLOUDS BELOW 12,000 FEET WITH NO
SIGNIFICANT WEATHER AND/OR OBSTRUCTIONS TO VISIBILITY.

OHZ001>008-015>018-024>027-034-035-043-044-280700-
   NORTHWEST OHIO

CITY           SKY/WX    TMP DP  RH WIND       PRES   REMARKS
DEFIANCE       CLEAR     20  10  65 N6        30.16R WCI  12
FINDLAY        CLEAR     21  13  71 NE10      30.13R WCI  10
TOLEDO EXPRESS CLEAR     19   9  65 N12       30.16R WCI   7
TOLEDO EXEC    CLOUDY    20   8  60 N14G20    30.17R WCI   7
LIMA           CLEAR     22  13  68 N5        30.12R WCI  16
$$

OHZ009>014-019>023-028>033-038-089-280700-
   NORTHEAST OHIO

CITY           SKY/WX    TMP DP  RH WIND       PRES   REMARKS
CLE-HOPKINS    CLOUDY    18   7  62 N16       30.14S WCI   3
CLE-LAKEFRONT  MOCLDY    18   7  62 N17       30.12S WCI   3
CUY CO. ARPT   NOT AVBL
LORAIN-ELYRIA  PTCLDY    17   8  67 N14       30.12S WCI   3
ASHTABULA      LGT SNOW  15   9  76 NW8       30.07S WCI   4
AKRON-CANTON   PTCLDY    16   6  65 N12       30.06R WCI   3
WOOSTER        NOT AVBL
MANSFIELD      CLOUDY    16  13  88 N3        30.07S
YOUNGSTOWN     FLURRIES  16   7  67 NW14      30.03S WCI   2
$$

OHZ042-051>053-060>062-070>072-077>081-280700-
  SOUTHWEST OHIO

CITY           SKY/WX    TMP DP  RH WIND       PRES   REMARKS
CINC-COVINGTON PTCLDY    25  12  58 N13       30.11S WCI  14
CINC-LUNKEN    PTCLDY    26  12  55 N14G21    30.15R WCI  14
HAMILTON       CLEAR     24  14  65 NW10      30.15R WCI  14
DAYTON         NOT AVBL
WRIGHT-PAT AFB NOT AVBL
DAYTON GENERAL MOCLDY    24  17  74 N9        30.10S WCI  14
WILMINGTON     PTCLDY    21  12  68 N6        30.09R WCI  13
$$

OHZ036-037-039>041-045>050-054>059-063>069-073>076-082>088-280700-
  CENTRAL AND SOUTHEAST OHIO

CITY           SKY/WX    TMP DP  RH WIND       PRES   REMARKS
COLUMBUS       PTCLDY    21  15  78 N8        30.10R WCI  11
OSU AIRPORT    CLEAR     19  14  81 N7        30.10R WCI  10
BOLTON FIELD   NOT AVBL
RICKENBACK AFB NOT AVBL
NEWARK         CLOUDY    21  14  74 N6        30.09R WCI  13
MARION         CLEAR     14  11  87 NE7       30.10S WCI   4
LANCASTER      CLEAR     23  16  74 NW6       30.09S WCI  16
ZANESVILLE     CLOUDY    21  11  65 N8        30.07S WCI  11
NEW PHILLY     MOCLDY    22  11  62 N12       30.08S WCI  10
$$



USA.gov is the U.S. government's official web portal to all federal, state and local government web resources and services.